Time,TemperatureF,DewpointF,PressureIn,WindDirection,WindDirectionDegrees,WindSpeedMPH,WindSpeedGustMPH,Humidity,HourlyPrecipIn,Conditions,Clouds,dailyrainin,SoftwareType,DateUTC
2013-11-22 00:03:00,47.1,44.6,30.31,SW,221,0.0,0.0,91,0.00,,,0.00,LWC V2.00 B2112,2013-11-22 05:03:00,
2013-11-22 00:08:00,47.0,44.5,30.31,SW,221,0.0,0.0,91,0.00,,,0.00,LWC V2.00 B2112,2013-11-22 05:08:00,
2013-11-22 00:13:00,47.0,44.5,30.31,SW,221,0.0,0.0,91,0.00,,,0.00,LWC V2.00 B2112,2013-11-22 05:13:00,
2013-11-22 00:18:00,46.8,44.6,30.30,SW,221,0.0,0.0,92,0.00,,,0.00,LWC V2.00 B2112,2013-11-22 05:18:00,
2013-11-22 00:23:00,46.8,44.6,30.30,SW,221,0.0,0.0,92,0.00,,,0.00,LWC V2.00 B2112,2013-11-22 05:23:00,
2013-11-22 00:28:00,47.1,45.2,30.30,SW,221,0.0,0.0,93,0.00,,,0.00,LWC V2.00 B2112,2013-11-22 05:28:00,
2013-11-22 00:33:00,47.3,45.4,30.29,SW,221,0.0,0.0,93,0.00,,,0.00,LWC V2.00 B2112,2013-11-22 05:33:00,
2013-11-22 00:38:00,47.3,45.4,30.29,SW,221,0.0,0.0,93,0.00,,,0.00,LWC V2.00 B2112,2013-11-22 05:38:00,
2013-11-22 00:43:00,47.3,45.4,30.29,SW,221,0.0,0.0,93,0.00,,,0.00,LWC V2.00 B2112,2013-11-22 05:43:00,
2013-11-22 00:48:00,47.3,45.4,30.29,SW,221,0.0,0.0,93,0.00,,,0.00,LWC V2.00 B2112,2013-11-22 05:48:00,
2013-11-22 00:53:00,47.4,45.5,30.29,SW,221,0.0,0.0,93,0.00,,,0.00,LWC V2.00 B2112,2013-11-22 05:53:00,
2013-11-22 00:58:00,47.6,45.7,30.29,SW,221,0.0,0.0,93,0.00,,,0.00,LWC V2.00 B2112,2013-11-22 05:58:00,
2013-11-22 01:03:00,47.6,45.7,30.28,SW,221,0.0,0.0,93,0.00,,,0.00,LWC V2.00 B2112,2013-11-22 06:03:00,
2013-11-22 01:08:00,47.6,45.7,30.28,SW,221,0.0,0.0,93,0.00,,,0.00,LWC V2.00 B2112,2013-11-22 06:08:00,
2013-11-22 01:13:00,47.9,46.0,30.28,SW,221,0.0,0.0,93,0.00,,,0.00,LWC V2.00 B2112,2013-11-22 06:13:00,
2013-11-22 01:18:00,48.0,46.1,30.28,SW,221,0.0,0.0,93,0.00,,,0.00,LWC V2.00 B2112,2013-11-22 06:18:00,
2013-11-22 01:23:00,48.2,46.0,30.28,SW,221,0.0,0.0,92,0.00,,,0.00,LWC V2.00 B2112,2013-11-22 06:23:00,
2013-11-22 01:28:00,48.2,46.0,30.28,SW,221,0.0,0.0,92,0.00,,,0.00,LWC V2.00 B2112,2013-11-22 06:28:00,
2013-11-22 01:33:00,48.3,46.1,30.28,SW,221,0.0,0.0,92,0.00,,,0.00,LWC V2.00 B2112,2013-11-22 06:33:00,
2013-11-22 01:38:00,48.5,46.3,30.28,SW,221,0.0,0.0,92,0.00,,,0.00,LWC V2.00 B2112,2013-11-22 06:38:00,
2013-11-22 01:43:00,48.6,46.1,30.28,SW,221,0.0,0.0,91,0.00,,,0.00,LWC V2.00 B2112,2013-11-22 06:43:00,
2013-11-22 01:48:00,48.6,45.8,30.28,SW,221,0.0,0.0,90,0.00,,,0.00,LWC V2.00 B2112,2013-11-22 06:48:00,
2013-11-22 01:53:00,48.5,45.4,30.28,SW,221,0.0,0.0,89,0.00,,,0.00,LWC V2.00 B2112,2013-11-22 06:53:00,
2013-11-22 01:58:00,48.3,45.2,30.28,SW,221,0.0,0.0,89,0.00,,,0.00,LWC V2.00 B2112,2013-11-22 06:58:00,
2013-11-22 02:03:00,48.2,45.1,30.28,SW,221,0.0,0.0,89,0.00,,,0.00,LWC V2.00 B2112,2013-11-22 07:03:00,
2013-11-22 02:08:00,48.2,45.4,30.28,SW,221,0.0,0.0,90,0.00,,,0.00,LWC V2.00 B2112,2013-11-22 07:08:00,
2013-11-22 02:13:00,48.2,45.4,30.28,SW,221,0.0,0.0,90,0.00,,,0.00,LWC V2.00 B2112,2013-11-22 07:13:00,
2013-11-22 02:18:00,48.2,45.4,30.27,SW,221,0.0,0.0,90,0.00,,,0.00,LWC V2.00 B2112,2013-11-22 07:18:00,
2013-11-22 02:23:00,48.3,45.8,30.27,SW,221,0.0,0.0,91,0.00,,,0.00,LWC V2.00 B2112,2013-11-22 07:23:00,
2013-11-22 02:28:00,48.3,45.8,30.27,SW,221,0.0,0.0,91,0.00,,,0.00,LWC V2.00 B2112,2013-11-22 07:28:00,
2013-11-22 02:33:00,48.3,45.8,30.27,SW,221,0.0,0.0,91,0.00,,,0.00,LWC V2.00 B2112,2013-11-22 07:33:00,
2013-11-22 02:38:00,48.3,45.8,30.27,SW,221,0.0,0.0,91,0.00,,,0.00,LWC V2.00 B2112,2013-11-22 07:38:00,
2013-11-22 02:43:00,48.5,46.0,30.27,SW,221,0.0,0.0,91,0.00,,,0.00,LWC V2.00 B2112,2013-11-22 07:43:00,
2013-11-22 02:48:00,48.5,46.0,30.27,SW,221,0.0,0.0,91,0.00,,,0.00,LWC V2.00 B2112,2013-11-22 07:48:00,
2013-11-22 02:53:00,48.5,46.0,30.27,SW,221,0.0,0.0,91,0.00,,,0.00,LWC V2.00 B2112,2013-11-22 07:53:00,
2013-11-22 02:58:00,48.6,46.1,30.27,SW,221,0.0,0.0,91,0.00,,,0.00,LWC V2.00 B2112,2013-11-22 07:58:00,
2013-11-22 03:03:00,48.6,46.1,30.27,SW,221,0.0,0.0,91,0.00,,,0.00,LWC V2.00 B2112,2013-11-22 08:03:00,
2013-11-22 03:08:00,48.6,46.1,30.27,SW,221,0.0,0.0,91,0.00,,,0.00,LWC V2.00 B2112,2013-11-22 08:08:00,
2013-11-22 03:13:00,48.6,46.1,30.27,SW,221,0.0,0.0,91,0.00,,,0.00,LWC V2.00 B2112,2013-11-22 08:13:00,
2013-11-22 03:18:00,48.6,45.8,30.26,SW,221,0.0,0.0,90,0.00,,,0.00,LWC V2.00 B2112,2013-11-22 08:18:00,
2013-11-22 03:23:00,48.6,45.8,30.26,SW,221,0.0,0.0,90,0.00,,,0.00,LWC V2.00 B2112,2013-11-22 08:23:00,
2013-11-22 03:28:00,48.5,45.7,30.26,SW,221,0.0,0.0,90,0.00,,,0.00,LWC V2.00 B2112,2013-11-22 08:28:00,
2013-11-22 03:33:00,48.5,45.7,30.25,SW,221,0.0,0.0,90,0.00,,,0.00,LWC V2.00 B2112,2013-11-22 08:33:00,
2013-11-22 03:38:00,48.3,45.5,30.25,SW,221,0.0,0.0,90,0.00,,,0.00,LWC V2.00 B2112,2013-11-22 08:38:00,
2013-11-22 03:43:00,48.3,45.8,30.25,SW,221,0.0,0.0,91,0.00,,,0.00,LWC V2.00 B2112,2013-11-22 08:43:00,
2013-11-22 03:48:00,48.3,45.8,30.25,SW,221,0.0,0.0,91,0.00,,,0.00,LWC V2.00 B2112,2013-11-22 08:48:00,
2013-11-22 03:53:00,48.3,45.8,30.25,SW,221,0.0,0.0,91,0.00,,,0.00,LWC V2.00 B2112,2013-11-22 08:53:00,
2013-11-22 03:58:00,48.3,45.8,30.25,SW,221,0.0,0.0,91,0.00,,,0.00,LWC V2.00 B2112,2013-11-22 08:58:00,
2013-11-22 04:03:00,48.5,46.0,30.25,SW,221,0.0,0.0,91,0.00,,,0.00,LWC V2.00 B2112,2013-11-22 09:03:00,
2013-11-22 04:08:00,48.5,46.0,30.25,SW,221,0.0,0.0,91,0.00,,,0.00,LWC V2.00 B2112,2013-11-22 09:08:00,
2013-11-22 04:13:00,48.6,46.1,30.25,SW,221,0.0,0.0,91,0.00,,,0.00,LWC V2.00 B2112,2013-11-22 09:13:00,
2013-11-22 04:18:00,48.6,46.1,30.25,SW,221,0.0,0.0,91,0.00,,,0.00,LWC V2.00 B2112,2013-11-22 09:18:00,
2013-11-22 04:23:00,48.8,46.3,30.25,SW,221,0.0,0.0,91,0.00,,,0.00,LWC V2.00 B2112,2013-11-22 09:23:00,
2013-11-22 04:28:00,48.8,46.3,30.25,SW,221,0.0,0.0,91,0.00,,,0.00,LWC V2.00 B2112,2013-11-22 09:28:00,
2013-11-22 04:33:00,48.8,46.3,30.24,SW,221,0.0,0.0,91,0.00,,,0.00,LWC V2.00 B2112,2013-11-22 09:33:00,
2013-11-22 04:38:00,48.9,46.4,30.24,SW,221,0.0,0.0,91,0.00,,,0.00,LWC V2.00 B2112,2013-11-22 09:38:00,
2013-11-22 04:43:00,48.9,46.4,30.24,SW,221,0.0,0.0,91,0.00,,,0.00,LWC V2.00 B2112,2013-11-22 09:43:00,
2013-11-22 04:48:00,48.9,46.4,30.24,SW,221,0.0,0.0,91,0.00,,,0.00,LWC V2.00 B2112,2013-11-22 09:48:00,
2013-11-22 04:53:00,49.1,46.3,30.24,SW,221,0.0,0.0,90,0.00,,,0.00,LWC V2.00 B2112,2013-11-22 09:53:00,
2013-11-22 04:58:00,49.1,46.3,30.24,SW,221,0.0,0.0,90,0.00,,,0.00,LWC V2.00 B2112,2013-11-22 09:58:00,
2013-11-22 05:03:00,48.9,46.1,30.24,SW,221,0.0,0.0,90,0.00,,,0.00,LWC V2.00 B2112,2013-11-22 10:03:00,
2013-11-22 05:08:00,48.8,45.7,30.24,SW,221,0.0,0.0,89,0.00,,,0.00,LWC V2.00 B2112,2013-11-22 10:08:00,
2013-11-22 05:13:00,48.5,45.4,30.24,SW,221,0.0,0.0,89,0.00,,,0.00,LWC V2.00 B2112,2013-11-22 10:13:00,
2013-11-22 05:18:00,48.3,45.2,30.23,SW,221,0.0,0.0,89,0.00,,,0.00,LWC V2.00 B2112,2013-11-22 10:18:00,
2013-11-22 05:23:00,48.0,45.2,30.23,SW,221,0.0,0.0,90,0.00,,,0.00,LWC V2.00 B2112,2013-11-22 10:23:00,
2013-11-22 05:28:00,47.9,45.1,30.23,SW,221,0.0,0.0,90,0.00,,,0.00,LWC V2.00 B2112,2013-11-22 10:28:00,
2013-11-22 05:33:00,47.6,45.1,30.24,SW,221,0.0,0.0,91,0.00,,,0.00,LWC V2.00 B2112,2013-11-22 10:33:00,
2013-11-22 05:38:00,47.4,44.9,30.24,SW,221,0.0,0.0,91,0.00,,,0.00,LWC V2.00 B2112,2013-11-22 10:38:00,
2013-11-22 05:43:00,47.1,44.6,30.24,SW,221,0.0,0.0,91,0.00,,,0.00,LWC V2.00 B2112,2013-11-22 10:43:00,
2013-11-22 05:48:00,47.0,44.8,30.23,SW,221,0.0,0.0,92,0.00,,,0.00,LWC V2.00 B2112,2013-11-22 10:48:00,
2013-11-22 05:53:00,46.8,44.6,30.23,SW,221,0.0,0.0,92,0.00,,,0.00,LWC V2.00 B2112,2013-11-22 10:53:00,
2013-11-22 05:58:00,46.5,44.3,30.23,SW,221,0.0,0.0,92,0.00,,,0.00,LWC V2.00 B2112,2013-11-22 10:58:00,
2013-11-22 06:03:00,46.4,44.2,30.24,SW,221,0.0,0.0,92,0.00,,,0.00,LWC V2.00 B2112,2013-11-22 11:03:00,
2013-11-22 06:08:00,46.4,44.5,30.24,SW,221,0.0,0.0,93,0.00,,,0.00,LWC V2.00 B2112,2013-11-22 11:08:00,
2013-11-22 06:13:00,46.5,44.9,30.24,SW,221,0.0,0.0,94,0.00,,,0.00,LWC V2.00 B2112,2013-11-22 11:13:00,
2013-11-22 06:18:00,46.5,44.9,30.23,SW,221,0.0,0.0,94,0.00,,,0.00,LWC V2.00 B2112,2013-11-22 11:18:00,
2013-11-22 06:23:00,46.4,44.8,30.23,SW,221,0.0,0.0,94,0.00,,,0.00,LWC V2.00 B2112,2013-11-22 11:23:00,
2013-11-22 06:28:00,46.2,44.6,30.23,SW,221,0.0,0.0,94,0.00,,,0.00,LWC V2.00 B2112,2013-11-22 11:28:00,
2013-11-22 06:33:00,46.2,44.8,30.23,SW,221,0.0,0.0,95,0.00,,,0.00,LWC V2.00 B2112,2013-11-22 11:33:00,
2013-11-22 06:38:00,46.2,44.8,30.23,SW,221,0.0,0.0,95,0.00,,,0.00,LWC V2.00 B2112,2013-11-22 11:38:00,
2013-11-22 06:43:00,46.4,45.0,30.23,SW,221,0.0,0.0,95,0.00,,,0.00,LWC V2.00 B2112,2013-11-22 11:43:00,
2013-11-22 06:48:00,46.1,44.7,30.22,SW,221,0.0,0.0,95,0.00,,,0.00,LWC V2.00 B2112,2013-11-22 11:48:00,
2013-11-22 06:53:00,46.1,44.7,30.22,SW,221,0.0,0.0,95,0.00,,,0.00,LWC V2.00 B2112,2013-11-22 11:53:00,
2013-11-22 06:58:00,46.1,44.7,30.22,SW,221,0.0,0.0,95,0.00,,,0.00,LWC V2.00 B2112,2013-11-22 11:58:00,
2013-11-22 07:03:00,46.1,45.0,30.22,SW,221,0.0,0.0,96,0.00,,,0.00,LWC V2.00 B2112,2013-11-22 12:03:00,
2013-11-22 07:08:00,46.1,45.0,30.22,SW,221,0.0,0.0,96,0.00,,,0.00,LWC V2.00 B2112,2013-11-22 12:08:00,
2013-11-22 07:13:00,46.1,45.0,30.22,SW,221,0.0,0.0,96,0.00,,,0.00,LWC V2.00 B2112,2013-11-22 12:13:00,
2013-11-22 07:18:00,46.1,45.0,30.22,SW,221,0.0,0.0,96,0.00,,,0.00,LWC V2.00 B2112,2013-11-22 12:18:00,
2013-11-22 07:23:00,46.2,45.1,30.22,SW,221,0.0,0.0,96,0.00,,,0.00,LWC V2.00 B2112,2013-11-22 12:23:00,
2013-11-22 07:28:00,46.5,45.7,30.22,SW,221,0.0,0.0,97,0.00,,,0.00,LWC V2.00 B2112,2013-11-22 12:28:00,
2013-11-22 07:33:00,46.5,45.7,30.22,SW,221,0.0,0.0,97,0.00,,,0.00,LWC V2.00 B2112,2013-11-22 12:33:00,
2013-11-22 07:38:00,46.7,45.9,30.22,SW,221,0.0,0.0,97,0.00,,,0.00,LWC V2.00 B2112,2013-11-22 12:38:00,
2013-11-22 07:43:00,47.0,46.2,30.22,SW,221,0.0,0.0,97,0.00,,,0.00,LWC V2.00 B2112,2013-11-22 12:43:00,
2013-11-22 07:48:00,47.7,47.2,30.21,SW,221,0.0,0.0,98,0.00,,,0.00,LWC V2.00 B2112,2013-11-22 12:48:00,
2013-11-22 07:53:00,48.3,47.8,30.21,SW,221,0.0,0.0,98,0.00,,,0.00,LWC V2.00 B2112,2013-11-22 12:53:00,
2013-11-22 07:58:00,48.9,48.4,30.21,SW,221,0.0,0.0,98,0.00,,,0.00,LWC V2.00 B2112,2013-11-22 12:58:00,
2013-11-22 08:03:00,49.6,49.3,30.21,SW,221,0.0,0.0,99,0.00,,,0.00,LWC V2.00 B2112,2013-11-22 13:03:00,
2013-11-22 08:08:00,50.5,50.2,30.21,SW,221,0.0,0.0,99,0.00,,,0.00,LWC V2.00 B2112,2013-11-22 13:08:00,
2013-11-22 08:13:00,51.1,50.8,30.21,SW,221,0.0,0.0,99,0.00,,,0.00,LWC V2.00 B2112,2013-11-22 13:13:00,
2013-11-22 08:18:00,51.4,51.1,30.22,SW,221,0.0,0.0,99,0.00,,,0.00,LWC V2.00 B2112,2013-11-22 13:18:00,
2013-11-22 08:23:00,51.6,51.1,30.22,SW,221,0.0,0.0,98,0.00,,,0.00,LWC V2.00 B2112,2013-11-22 13:23:00,
2013-11-22 08:28:00,51.4,50.6,30.22,SW,221,0.0,0.0,97,0.00,,,0.00,LWC V2.00 B2112,2013-11-22 13:28:00,
2013-11-22 08:33:00,51.3,50.2,30.22,SW,221,0.0,0.0,96,0.00,,,0.00,LWC V2.00 B2112,2013-11-22 13:33:00,
2013-11-22 08:38:00,51.3,49.9,30.22,SW,221,0.0,0.0,95,0.00,,,0.00,LWC V2.00 B2112,2013-11-22 13:38:00,
2013-11-22 08:43:00,51.1,49.4,30.22,SW,221,0.0,0.0,94,0.00,,,0.00,LWC V2.00 B2112,2013-11-22 13:43:00,
2013-11-22 08:48:00,51.3,49.3,30.22,SW,221,0.0,0.0,93,0.00,,,0.00,LWC V2.00 B2112,2013-11-22 13:48:00,
2013-11-22 08:53:00,51.4,49.4,30.22,SW,221,0.0,0.0,93,0.00,,,0.00,LWC V2.00 B2112,2013-11-22 13:53:00,
2013-11-22 08:58:00,51.9,49.9,30.22,SW,221,0.0,0.0,93,0.00,,,0.00,LWC V2.00 B2112,2013-11-22 13:58:00,
2013-11-22 09:03:00,52.3,50.3,30.21,SW,221,0.0,0.0,93,0.00,,,0.00,LWC V2.00 B2112,2013-11-22 14:03:00,
2013-11-22 09:08:00,52.8,50.8,30.21,SW,221,0.0,0.0,93,0.00,,,0.00,LWC V2.00 B2112,2013-11-22 14:08:00,
2013-11-22 09:13:00,53.6,51.6,30.21,West,263,0.0,0.0,93,0.00,,,0.00,LWC V2.00 B2112,2013-11-22 14:13:00,
2013-11-22 09:18:00,54.1,51.5,30.21,West,266,0.0,0.0,91,0.00,,,0.00,LWC V2.00 B2112,2013-11-22 14:18:00,
2013-11-22 09:23:00,54.5,51.6,30.21,West,276,0.0,0.0,90,0.00,,,0.00,LWC V2.00 B2112,2013-11-22 14:23:00,
2013-11-22 09:28:00,55.1,51.9,30.21,SW,228,0.0,0.0,89,0.00,,,0.00,LWC V2.00 B2112,2013-11-22 14:28:00,
2013-11-22 09:33:00,55.4,51.6,30.21,SW,226,0.0,0.0,87,0.00,,,0.00,LWC V2.00 B2112,2013-11-22 14:33:00,
2013-11-22 09:38:00,55.9,51.8,30.21,WSW,243,0.0,0.0,86,0.00,,,0.00,LWC V2.00 B2112,2013-11-22 14:38:00,
2013-11-22 09:43:00,56.3,51.8,30.21,SW,236,0.0,0.0,85,0.00,,,0.00,LWC V2.00 B2112,2013-11-22 14:43:00,
2013-11-22 09:48:00,56.7,51.9,30.21,SW,236,0.0,0.0,84,0.00,,,0.00,LWC V2.00 B2112,2013-11-22 14:48:00,
2013-11-22 09:53:00,57.3,52.2,30.21,West,260,0.0,0.0,83,0.00,,,0.00,LWC V2.00 B2112,2013-11-22 14:53:00,
2013-11-22 09:58:00,57.6,52.5,30.21,SW,236,0.0,0.0,83,0.00,,,0.00,LWC V2.00 B2112,2013-11-22 14:58:00,
2013-11-22 10:03:00,58.0,52.9,30.21,SW,233,0.0,0.0,83,0.00,,,0.00,LWC V2.00 B2112,2013-11-22 15:03:00,
2013-11-22 10:08:00,58.1,52.6,30.21,SE,131,0.0,0.0,82,0.00,,,0.00,LWC V2.00 B2112,2013-11-22 15:08:00,
2013-11-22 10:13:00,58.4,52.9,30.21,West,259,0.0,0.0,82,0.00,,,0.00,LWC V2.00 B2112,2013-11-22 15:13:00,
2013-11-22 10:18:00,58.7,52.9,30.21,West,259,0.0,0.0,81,0.00,,,0.00,LWC V2.00 B2112,2013-11-22 15:18:00,
2013-11-22 10:23:00,58.9,53.4,30.21,West,271,0.0,0.0,82,0.00,,,0.00,LWC V2.00 B2112,2013-11-22 15:23:00,
2013-11-22 10:28:00,59.0,53.2,30.21,WSW,252,0.0,0.0,81,0.00,,,0.00,LWC V2.00 B2112,2013-11-22 15:28:00,
2013-11-22 10:33:00,59.2,53.4,30.20,SW,217,0.0,0.0,81,0.00,,,0.00,LWC V2.00 B2112,2013-11-22 15:33:00,
2013-11-22 10:38:00,59.5,53.7,30.20,WNW,285,0.0,0.0,81,0.00,,,0.00,LWC V2.00 B2112,2013-11-22 15:38:00,
2013-11-22 10:43:00,59.8,53.6,30.20,SW,226,0.0,0.0,80,0.00,,,0.00,LWC V2.00 B2112,2013-11-22 15:43:00,
2013-11-22 10:48:00,60.1,53.6,30.19,SW,226,0.0,0.0,79,0.00,,,0.00,LWC V2.00 B2112,2013-11-22 15:48:00,
2013-11-22 10:53:00,60.4,53.9,30.19,SW,224,0.0,0.0,79,0.00,,,0.00,LWC V2.00 B2112,2013-11-22 15:53:00,
2013-11-22 10:58:00,60.5,53.2,30.19,West,263,0.0,0.0,77,0.00,,,0.00,LWC V2.00 B2112,2013-11-22 15:58:00,
2013-11-22 11:03:00,60.7,53.1,30.19,West,279,0.0,0.0,76,0.00,,,0.00,LWC V2.00 B2112,2013-11-22 16:03:00,
2013-11-22 11:08:00,60.7,52.7,30.19,WSW,249,0.0,2.0,75,0.00,,,0.00,LWC V2.00 B2112,2013-11-22 16:08:00,
2013-11-22 11:13:00,60.9,53.6,30.19,WSW,249,0.0,0.0,77,0.00,,,0.00,LWC V2.00 B2112,2013-11-22 16:13:00,
2013-11-22 11:18:00,61.0,53.7,30.18,WSW,257,0.0,0.0,77,0.00,,,0.00,LWC V2.00 B2112,2013-11-22 16:18:00,
2013-11-22 11:23:00,60.9,52.9,30.18,ESE,121,0.0,0.0,75,0.00,,,0.00,LWC V2.00 B2112,2013-11-22 16:23:00,
2013-11-22 11:28:00,60.9,52.9,30.18,West,278,0.0,0.0,75,0.00,,,0.00,LWC V2.00 B2112,2013-11-22 16:28:00,
2013-11-22 11:33:00,60.9,52.9,30.18,WSW,250,0.0,0.0,75,0.00,,,0.00,LWC V2.00 B2112,2013-11-22 16:33:00,
2013-11-22 11:38:00,60.9,53.3,30.18,West,271,0.0,0.0,76,0.00,,,0.00,LWC V2.00 B2112,2013-11-22 16:38:00,
2013-11-22 11:43:00,60.9,52.9,30.18,West,271,0.0,0.0,75,0.00,,,0.00,LWC V2.00 B2112,2013-11-22 16:43:00,
2013-11-22 11:48:00,61.0,53.0,30.17,West,271,0.0,0.0,75,0.00,,,0.00,LWC V2.00 B2112,2013-11-22 16:48:00,
2013-11-22 11:53:00,61.2,52.8,30.17,West,271,0.0,0.0,74,0.00,,,0.00,LWC V2.00 B2112,2013-11-22 16:53:00,
2013-11-22 11:58:00,61.3,52.9,30.17,WNW,285,0.0,0.0,74,0.00,,,0.00,LWC V2.00 B2112,2013-11-22 16:58:00,
2013-11-22 12:03:00,61.6,53.2,30.16,WNW,285,0.0,0.0,74,0.00,,,0.00,LWC V2.00 B2112,2013-11-22 17:03:00,
2013-11-22 12:08:00,61.6,53.6,30.16,WSW,246,0.0,0.0,75,0.00,,,0.00,LWC V2.00 B2112,2013-11-22 17:08:00,
2013-11-22 12:13:00,61.8,53.4,30.16,WSW,240,0.0,0.0,74,0.00,,,0.00,LWC V2.00 B2112,2013-11-22 17:13:00,
2013-11-22 12:18:00,62.3,53.9,30.14,WNW,284,0.0,0.0,74,0.00,,,0.00,LWC V2.00 B2112,2013-11-22 17:18:00,
2013-11-22 12:23:00,62.4,54.0,30.14,SSW,205,0.0,3.0,74,0.00,,,0.00,LWC V2.00 B2112,2013-11-22 17:23:00,
2013-11-22 12:28:00,62.3,53.9,30.14,SW,218,0.0,1.0,74,0.00,,,0.00,LWC V2.00 B2112,2013-11-22 17:28:00,
2013-11-22 12:33:00,62.4,54.4,30.14,West,262,0.0,0.0,75,0.00,,,0.00,LWC V2.00 B2112,2013-11-22 17:33:00,
2013-11-22 12:38:00,62.9,54.5,30.14,WNW,285,0.0,2.0,74,0.00,,,0.00,LWC V2.00 B2112,2013-11-22 17:38:00,
2013-11-22 12:43:00,63.2,54.8,30.14,West,274,0.0,0.0,74,0.00,,,0.00,LWC V2.00 B2112,2013-11-22 17:43:00,
2013-11-22 12:48:00,63.5,55.1,30.13,South,170,0.0,0.0,74,0.00,,,0.00,LWC V2.00 B2112,2013-11-22 17:48:00,
2013-11-22 12:53:00,63.5,54.7,30.13,South,172,0.0,0.0,73,0.00,,,0.00,LWC V2.00 B2112,2013-11-22 17:53:00,
2013-11-22 12:58:00,64.0,55.5,30.13,WSW,248,0.0,0.0,74,0.00,,,0.00,LWC V2.00 B2112,2013-11-22 17:58:00,
2013-11-22 13:03:00,64.2,55.4,30.12,West,271,1.0,4.0,73,0.00,,,0.00,LWC V2.00 B2112,2013-11-22 18:03:00,
2013-11-22 13:08:00,64.2,55.4,30.12,WSW,251,0.0,0.0,73,0.00,,,0.00,LWC V2.00 B2112,2013-11-22 18:08:00,
2013-11-22 13:13:00,64.5,56.0,30.12,WSW,239,0.0,0.0,74,0.00,,,0.00,LWC V2.00 B2112,2013-11-22 18:13:00,
2013-11-22 13:18:00,65.0,56.1,30.11,West,277,0.0,3.0,73,0.00,,,0.00,LWC V2.00 B2112,2013-11-22 18:18:00,
2013-11-22 13:23:00,65.2,55.9,30.11,WNW,288,0.0,0.0,72,0.00,,,0.00,LWC V2.00 B2112,2013-11-22 18:23:00,
2013-11-22 13:28:00,65.5,55.8,30.11,WNW,282,0.0,0.0,71,0.00,,,0.00,LWC V2.00 B2112,2013-11-22 18:28:00,
2013-11-22 13:33:00,65.6,56.3,30.11,SW,234,0.0,4.0,72,0.00,,,0.00,LWC V2.00 B2112,2013-11-22 18:33:00,
2013-11-22 13:38:00,66.0,56.7,30.11,SSW,207,0.0,0.0,72,0.00,,,0.00,LWC V2.00 B2112,2013-11-22 18:38:00,
2013-11-22 13:43:00,66.4,57.5,30.11,SSE,167,0.0,0.0,73,0.00,,,0.00,LWC V2.00 B2112,2013-11-22 18:43:00,
2013-11-22 13:48:00,66.8,57.1,30.10,SW,217,0.0,0.0,71,0.00,,,0.00,LWC V2.00 B2112,2013-11-22 18:48:00,
2013-11-22 13:53:00,67.1,57.4,30.10,SW,222,0.0,0.0,71,0.00,,,0.00,LWC V2.00 B2112,2013-11-22 18:53:00,
2013-11-22 13:58:00,67.4,57.3,30.10,West,272,0.0,3.0,70,0.00,,,0.00,LWC V2.00 B2112,2013-11-22 18:58:00,
2013-11-22 14:03:00,67.8,58.0,30.09,West,261,0.0,1.0,71,0.00,,,0.00,LWC V2.00 B2112,2013-11-22 19:03:00,
2013-11-22 14:08:00,68.1,57.1,30.09,SW,227,0.0,4.0,68,0.00,,,0.00,LWC V2.00 B2112,2013-11-22 19:08:00,
2013-11-22 14:13:00,68.4,57.4,30.09,West,264,3.0,5.0,68,0.00,,,0.00,LWC V2.00 B2112,2013-11-22 19:13:00,
2013-11-22 14:18:00,68.6,57.6,30.08,West,268,0.0,0.0,68,0.00,,,0.00,LWC V2.00 B2112,2013-11-22 19:18:00,
2013-11-22 14:23:00,68.4,57.4,30.08,West,266,0.0,0.0,68,0.00,,,0.00,LWC V2.00 B2112,2013-11-22 19:23:00,
2013-11-22 14:28:00,68.1,57.5,30.08,West,274,0.0,2.0,69,0.00,,,0.00,LWC V2.00 B2112,2013-11-22 19:28:00,
2013-11-22 14:33:00,68.4,57.4,30.08,WNW,300,0.0,0.0,68,0.00,,,0.00,LWC V2.00 B2112,2013-11-22 19:33:00,
2013-11-22 14:38:00,68.8,57.8,30.08,SW,222,4.0,4.0,68,0.00,,,0.00,LWC V2.00 B2112,2013-11-22 19:38:00,
2013-11-22 14:43:00,69.1,58.1,30.08,WSW,241,0.0,5.0,68,0.00,,,0.00,LWC V2.00 B2112,2013-11-22 19:43:00,
2013-11-22 14:48:00,68.9,57.5,30.07,SSW,192,0.0,7.0,67,0.00,,,0.00,LWC V2.00 B2112,2013-11-22 19:48:00,
2013-11-22 14:53:00,68.6,57.6,30.07,SW,217,0.0,3.0,68,0.00,,,0.00,LWC V2.00 B2112,2013-11-22 19:53:00,
2013-11-22 14:58:00,68.6,58.0,30.07,WNW,283,0.0,5.0,69,0.00,,,0.00,LWC V2.00 B2112,2013-11-22 19:58:00,
2013-11-22 15:03:00,68.6,57.6,30.06,WSW,257,0.0,3.0,68,0.00,,,0.00,LWC V2.00 B2112,2013-11-22 20:03:00,
2013-11-22 15:08:00,68.9,57.9,30.06,South,170,0.0,4.0,68,0.00,,,0.00,LWC V2.00 B2112,2013-11-22 20:08:00,
2013-11-22 15:13:00,69.3,57.9,30.06,West,268,0.0,0.0,67,0.00,,,0.00,LWC V2.00 B2112,2013-11-22 20:13:00,
2013-11-22 15:18:00,68.9,57.9,30.06,West,269,0.0,0.0,68,0.00,,,0.00,LWC V2.00 B2112,2013-11-22 20:18:00,
2013-11-22 15:23:00,68.8,57.8,30.06,WNW,285,0.0,0.0,68,0.00,,,0.00,LWC V2.00 B2112,2013-11-22 20:23:00,
2013-11-22 15:28:00,69.1,58.1,30.06,West,267,0.0,0.0,68,0.00,,,0.00,LWC V2.00 B2112,2013-11-22 20:28:00,
2013-11-22 15:33:00,69.4,58.0,30.06,West,281,0.0,1.0,67,0.00,,,0.00,LWC V2.00 B2112,2013-11-22 20:33:00,
2013-11-22 15:38:00,69.6,58.1,30.06,WSW,243,0.0,0.0,67,0.00,,,0.00,LWC V2.00 B2112,2013-11-22 20:38:00,
2013-11-22 15:43:00,69.6,58.1,30.06,WSW,248,0.0,0.0,67,0.00,,,0.00,LWC V2.00 B2112,2013-11-22 20:43:00,
2013-11-22 15:48:00,69.6,58.1,30.06,SSE,147,0.0,0.0,67,0.00,,,0.00,LWC V2.00 B2112,2013-11-22 20:48:00,
2013-11-22 15:53:00,69.4,58.0,30.06,WSW,255,0.0,0.0,67,0.00,,,0.00,LWC V2.00 B2112,2013-11-22 20:53:00,
2013-11-22 15:58:00,69.1,58.1,30.06,WNW,285,0.0,0.0,68,0.00,,,0.00,LWC V2.00 B2112,2013-11-22 20:58:00,
2013-11-22 16:03:00,68.6,58.0,30.06,WSW,255,0.0,0.0,69,0.00,,,0.00,LWC V2.00 B2112,2013-11-22 21:03:00,
2013-11-22 16:08:00,68.3,58.1,30.06,West,263,0.0,0.0,70,0.00,,,0.00,LWC V2.00 B2112,2013-11-22 21:08:00,
2013-11-22 16:13:00,67.9,58.1,30.06,West,262,0.0,0.0,71,0.00,,,0.00,LWC V2.00 B2112,2013-11-22 21:13:00,
2013-11-22 16:18:00,67.8,57.6,30.06,WNW,300,1.0,5.0,70,0.00,,,0.00,LWC V2.00 B2112,2013-11-22 21:18:00,
2013-11-22 16:23:00,67.6,57.9,30.06,West,278,0.0,0.0,71,0.00,,,0.00,LWC V2.00 B2112,2013-11-22 21:23:00,
2013-11-22 16:28:00,67.6,57.9,30.06,WSW,257,0.0,0.0,71,0.00,,,0.00,LWC V2.00 B2112,2013-11-22 21:28:00,
2013-11-22 16:33:00,67.4,57.7,30.05,WSW,256,0.0,0.0,71,0.00,,,0.00,LWC V2.00 B2112,2013-11-22 21:33:00,
2013-11-22 16:38:00,67.3,57.6,30.05,WSW,246,0.0,0.0,71,0.00,,,0.00,LWC V2.00 B2112,2013-11-22 21:38:00,
2013-11-22 16:43:00,67.1,57.8,30.05,SW,224,3.0,4.0,72,0.00,,,0.00,LWC V2.00 B2112,2013-11-22 21:43:00,
2013-11-22 16:48:00,66.9,57.6,30.04,WNW,287,0.0,1.0,72,0.00,,,0.00,LWC V2.00 B2112,2013-11-22 21:48:00,
2013-11-22 16:53:00,66.6,57.7,30.04,WSW,258,0.0,0.0,73,0.00,,,0.00,LWC V2.00 B2112,2013-11-22 21:53:00,
2013-11-22 16:58:00,66.4,57.5,30.04,SW,225,0.0,0.0,73,0.00,,,0.00,LWC V2.00 B2112,2013-11-22 21:58:00,
2013-11-22 17:03:00,66.1,57.6,30.04,SW,219,0.0,0.0,74,0.00,,,0.00,LWC V2.00 B2112,2013-11-22 22:03:00,
2013-11-22 17:08:00,65.8,57.3,30.04,SSW,211,0.0,0.0,74,0.00,,,0.00,LWC V2.00 B2112,2013-11-22 22:08:00,
2013-11-22 17:13:00,65.6,57.5,30.04,WSW,257,0.0,0.0,75,0.00,,,0.00,LWC V2.00 B2112,2013-11-22 22:13:00,
2013-11-22 17:18:00,65.5,57.7,30.04,West,259,0.0,0.0,76,0.00,,,0.00,LWC V2.00 B2112,2013-11-22 22:18:00,
2013-11-22 17:23:00,65.5,57.7,30.04,West,259,0.0,0.0,76,0.00,,,0.00,LWC V2.00 B2112,2013-11-22 22:23:00,
2013-11-22 17:28:00,65.3,57.5,30.04,WSW,258,0.0,0.0,76,0.00,,,0.00,LWC V2.00 B2112,2013-11-22 22:28:00,
2013-11-22 17:33:00,65.2,57.8,30.04,WSW,258,0.0,0.0,77,0.00,,,0.00,LWC V2.00 B2112,2013-11-22 22:33:00,
2013-11-22 17:38:00,65.0,57.6,30.04,WSW,254,0.0,0.0,77,0.00,,,0.00,LWC V2.00 B2112,2013-11-22 22:38:00,
2013-11-22 17:43:00,65.0,57.6,30.04,SSW,212,0.0,0.0,77,0.00,,,0.00,LWC V2.00 B2112,2013-11-22 22:43:00,
2013-11-22 17:48:00,65.0,57.6,30.03,SSW,206,0.0,0.0,77,0.00,,,0.00,LWC V2.00 B2112,2013-11-22 22:48:00,
2013-11-22 17:53:00,65.0,58.0,30.03,SSW,210,0.0,0.0,78,0.00,,,0.00,LWC V2.00 B2112,2013-11-22 22:53:00,
2013-11-22 17:58:00,64.8,57.8,30.03,WSW,251,0.0,0.0,78,0.00,,,0.00,LWC V2.00 B2112,2013-11-22 22:58:00,
2013-11-22 18:03:00,64.8,57.8,30.03,WSW,254,0.0,0.0,78,0.00,,,0.00,LWC V2.00 B2112,2013-11-22 23:03:00,
2013-11-22 18:08:00,64.8,58.1,30.03,WSW,255,0.0,0.0,79,0.00,,,0.00,LWC V2.00 B2112,2013-11-22 23:08:00,
2013-11-22 18:13:00,64.7,58.0,30.03,WSW,255,0.0,0.0,79,0.00,,,0.00,LWC V2.00 B2112,2013-11-22 23:13:00,
2013-11-22 18:18:00,64.8,58.1,30.03,SW,223,0.0,0.0,79,0.00,,,0.00,LWC V2.00 B2112,2013-11-22 23:18:00,
2013-11-22 18:23:00,64.8,58.1,30.03,SSW,193,0.0,0.0,79,0.00,,,0.00,LWC V2.00 B2112,2013-11-22 23:23:00,
2013-11-22 18:28:00,65.0,58.3,30.03,WSW,241,0.0,0.0,79,0.00,,,0.00,LWC V2.00 B2112,2013-11-22 23:28:00,
2013-11-22 18:33:00,65.0,58.3,30.03,West,259,0.0,3.0,79,0.00,,,0.00,LWC V2.00 B2112,2013-11-22 23:33:00,
2013-11-22 18:38:00,65.0,58.3,30.03,SE,135,0.0,0.0,79,0.00,,,0.00,LWC V2.00 B2112,2013-11-22 23:38:00,
2013-11-22 18:43:00,65.0,58.3,30.03,WSW,248,0.0,0.0,79,0.00,,,0.00,LWC V2.00 B2112,2013-11-22 23:43:00,
2013-11-22 18:48:00,65.0,58.3,30.03,WSW,247,0.0,1.0,79,0.00,,,0.00,LWC V2.00 B2112,2013-11-22 23:48:00,
2013-11-22 18:53:00,65.0,58.0,30.03,SSW,204,0.0,0.0,78,0.00,,,0.00,LWC V2.00 B2112,2013-11-22 23:53:00,
2013-11-22 18:58:00,65.0,58.0,30.03,WSW,252,0.0,0.0,78,0.00,,,0.00,LWC V2.00 B2112,2013-11-22 23:58:00,
2013-11-22 19:03:00,65.0,58.0,30.03,West,281,0.0,0.0,78,0.00,,,0.00,LWC V2.00 B2112,2013-11-23 00:03:00,
2013-11-22 19:08:00,65.0,58.0,30.03,SSW,200,0.0,0.0,78,0.00,,,0.00,LWC V2.00 B2112,2013-11-23 00:08:00,
2013-11-22 19:13:00,64.8,57.8,30.03,SSW,200,0.0,0.0,78,0.00,,,0.00,LWC V2.00 B2112,2013-11-23 00:13:00,
2013-11-22 19:18:00,64.8,57.8,30.02,West,278,0.0,4.0,78,0.00,,,0.00,LWC V2.00 B2112,2013-11-23 00:18:00,
2013-11-22 19:23:00,64.8,57.4,30.02,SSW,207,0.0,0.0,77,0.00,,,0.00,LWC V2.00 B2112,2013-11-23 00:23:00,
2013-11-22 19:28:00,64.8,57.4,30.02,SSW,193,0.0,0.0,77,0.00,,,0.00,LWC V2.00 B2112,2013-11-23 00:28:00,
2013-11-22 19:33:00,64.8,57.4,30.02,West,262,0.0,0.0,77,0.00,,,0.00,LWC V2.00 B2112,2013-11-23 00:33:00,
2013-11-22 19:38:00,64.8,57.4,30.02,WNW,290,0.0,0.0,77,0.00,,,0.00,LWC V2.00 B2112,2013-11-23 00:38:00,
2013-11-22 19:43:00,64.8,57.4,30.02,West,272,0.0,0.0,77,0.00,,,0.00,LWC V2.00 B2112,2013-11-23 00:43:00,
2013-11-22 19:48:00,64.8,57.4,30.02,SSW,201,0.0,0.0,77,0.00,,,0.00,LWC V2.00 B2112,2013-11-23 00:48:00,
2013-11-22 19:53:00,64.7,57.3,30.02,WNW,296,0.0,2.0,77,0.00,,,0.00,LWC V2.00 B2112,2013-11-23 00:53:00,
2013-11-22 19:58:00,64.7,57.3,30.02,SE,143,0.0,0.0,77,0.00,,,0.00,LWC V2.00 B2112,2013-11-23 00:58:00,
2013-11-22 20:03:00,64.8,57.4,30.01,West,264,0.0,0.0,77,0.00,,,0.00,LWC V2.00 B2112,2013-11-23 01:03:00,
2013-11-22 20:08:00,64.8,57.4,30.01,WSW,245,0.0,0.0,77,0.00,,,0.00,LWC V2.00 B2112,2013-11-23 01:08:00,
2013-11-22 20:13:00,64.7,57.3,30.01,WSW,248,0.0,0.0,77,0.00,,,0.00,LWC V2.00 B2112,2013-11-23 01:13:00,
2013-11-22 20:18:00,64.7,57.3,30.01,SW,234,0.0,0.0,77,0.00,,,0.00,LWC V2.00 B2112,2013-11-23 01:18:00,
2013-11-22 20:23:00,64.7,57.3,30.01,WSW,257,0.0,0.0,77,0.00,,,0.00,LWC V2.00 B2112,2013-11-23 01:23:00,
2013-11-22 20:28:00,64.7,57.7,30.01,SSE,160,0.0,0.0,78,0.00,,,0.00,LWC V2.00 B2112,2013-11-23 01:28:00,
2013-11-22 20:33:00,64.5,57.5,30.00,WSW,253,0.0,0.0,78,0.00,,,0.00,LWC V2.00 B2112,2013-11-23 01:33:00,
2013-11-22 20:38:00,64.5,57.5,30.00,SE,136,0.0,0.0,78,0.00,,,0.00,LWC V2.00 B2112,2013-11-23 01:38:00,
2013-11-22 20:43:00,64.3,57.3,30.00,West,266,0.0,0.0,78,0.00,,,0.00,LWC V2.00 B2112,2013-11-23 01:43:00,
2013-11-22 20:48:00,64.5,57.8,30.00,South,176,0.0,0.0,79,0.00,,,0.00,LWC V2.00 B2112,2013-11-23 01:48:00,
2013-11-22 20:53:00,64.3,57.6,30.00,West,264,0.0,0.0,79,0.00,,,0.00,LWC V2.00 B2112,2013-11-23 01:53:00,
2013-11-22 20:58:00,64.3,57.6,30.00,West,267,0.0,6.0,79,0.00,,,0.00,LWC V2.00 B2112,2013-11-23 01:58:00,
2013-11-22 21:03:00,64.2,57.9,30.00,West,277,0.0,0.0,80,0.00,,,0.00,LWC V2.00 B2112,2013-11-23 02:03:00,
2013-11-22 21:08:00,64.0,57.7,30.00,SSW,208,0.0,0.0,80,0.00,,,0.00,LWC V2.00 B2112,2013-11-23 02:08:00,
2013-11-22 21:13:00,64.0,57.7,30.00,West,268,0.0,0.0,80,0.00,,,0.00,LWC V2.00 B2112,2013-11-23 02:13:00,
2013-11-22 21:18:00,64.0,57.7,30.00,SSW,206,0.0,0.0,80,0.00,,,0.00,LWC V2.00 B2112,2013-11-23 02:18:00,
2013-11-22 21:23:00,64.0,58.0,30.00,SSW,204,0.0,0.0,81,0.00,,,0.00,LWC V2.00 B2112,2013-11-23 02:23:00,
2013-11-22 21:28:00,63.9,57.9,30.00,SSE,155,0.0,0.0,81,0.00,,,0.00,LWC V2.00 B2112,2013-11-23 02:28:00,
2013-11-22 21:33:00,63.9,57.9,30.00,WSW,250,0.0,0.0,81,0.00,,,0.00,LWC V2.00 B2112,2013-11-23 02:33:00,
2013-11-22 21:38:00,63.9,57.9,30.00,WSW,254,0.0,0.0,81,0.00,,,0.00,LWC V2.00 B2112,2013-11-23 02:38:00,
2013-11-22 21:43:00,63.9,57.9,30.00,SSW,207,0.0,0.0,81,0.00,,,0.00,LWC V2.00 B2112,2013-11-23 02:43:00,
2013-11-22 21:48:00,63.9,57.9,30.00,NW,312,0.0,0.0,81,0.00,,,0.00,LWC V2.00 B2112,2013-11-23 02:48:00,
2013-11-22 21:53:00,63.9,58.3,30.00,WNW,287,0.0,0.0,82,0.00,,,0.00,LWC V2.00 B2112,2013-11-23 02:53:00,
2013-11-22 21:58:00,63.7,58.1,30.00,SSW,200,0.0,0.0,82,0.00,,,0.00,LWC V2.00 B2112,2013-11-23 02:58:00,
2013-11-22 22:03:00,63.7,58.1,30.00,NW,304,0.0,0.0,82,0.00,,,0.00,LWC V2.00 B2112,2013-11-23 03:03:00,
2013-11-22 22:08:00,63.7,58.4,30.00,SSW,211,0.0,0.0,83,0.00,,,0.00,LWC V2.00 B2112,2013-11-23 03:08:00,
2013-11-22 22:13:00,63.5,58.2,30.00,SW,233,0.0,0.0,83,0.00,,,0.00,LWC V2.00 B2112,2013-11-23 03:13:00,
2013-11-22 22:18:00,63.4,58.8,29.99,WSW,241,0.0,0.0,85,0.00,,,0.00,LWC V2.00 B2112,2013-11-23 03:18:00,
2013-11-22 22:23:00,63.2,58.9,29.99,West,260,0.0,2.0,86,0.00,,,0.00,LWC V2.00 B2112,2013-11-23 03:23:00,
2013-11-22 22:28:00,63.1,59.2,29.99,West,259,0.0,0.0,87,0.00,,,0.00,LWC V2.00 B2112,2013-11-23 03:28:00,
2013-11-22 22:33:00,62.9,59.0,29.99,SW,228,0.0,0.0,87,0.00,,,0.00,LWC V2.00 B2112,2013-11-23 03:33:00,
2013-11-22 22:38:00,62.9,59.0,29.99,SW,218,1.0,3.0,87,0.00,,,0.00,LWC V2.00 B2112,2013-11-23 03:38:00,
2013-11-22 22:43:00,62.7,58.8,29.99,West,267,0.0,0.0,87,0.00,,,0.00,LWC V2.00 B2112,2013-11-23 03:43:00,
2013-11-22 22:48:00,62.7,58.8,30.00,West,274,0.0,0.0,87,0.00,,,0.00,LWC V2.00 B2112,2013-11-23 03:48:00,
2013-11-22 22:53:00,62.7,59.1,30.00,West,273,0.0,0.0,88,0.00,,,0.00,LWC V2.00 B2112,2013-11-23 03:53:00,
2013-11-22 22:58:00,62.6,59.3,30.00,WSW,243,0.0,0.0,89,0.00,,,0.00,LWC V2.00 B2112,2013-11-23 03:58:00,
2013-11-22 23:03:00,62.4,59.4,30.00,WSW,255,0.0,0.0,90,0.00,,,0.01,LWC V2.00 B2112,2013-11-23 04:03:00,
2013-11-22 23:08:00,62.3,59.6,30.00,South,173,0.0,0.0,91,0.00,,,0.01,LWC V2.00 B2112,2013-11-23 04:08:00,
2013-11-22 23:13:00,62.1,59.7,30.00,WSW,239,0.0,0.0,92,0.00,,,0.01,LWC V2.00 B2112,2013-11-23 04:13:00,
2013-11-22 23:18:00,62.0,59.9,29.99,WSW,252,0.0,0.0,93,0.00,,,0.01,LWC V2.00 B2112,2013-11-23 04:18:00,
2013-11-22 23:23:00,61.8,60.1,29.99,WNW,286,0.0,0.0,94,0.00,,,0.01,LWC V2.00 B2112,2013-11-23 04:23:00,
2013-11-22 23:28:00,61.6,59.9,29.99,South,187,0.0,0.0,94,0.00,,,0.01,LWC V2.00 B2112,2013-11-23 04:28:00,
2013-11-22 23:33:00,61.5,59.8,29.99,South,181,0.0,0.0,94,0.00,,,0.01,LWC V2.00 B2112,2013-11-23 04:33:00,
2013-11-22 23:38:00,61.3,59.9,29.99,WSW,247,0.0,0.0,95,0.00,,,0.01,LWC V2.00 B2112,2013-11-23 04:38:00,
2013-11-22 23:43:00,61.3,59.9,29.99,SSW,210,0.0,0.0,95,0.00,,,0.02,LWC V2.00 B2112,2013-11-23 04:43:00,
2013-11-22 23:48:00,61.2,60.0,29.99,West,274,0.0,0.0,96,0.00,,,0.02,LWC V2.00 B2112,2013-11-23 04:48:00,
2013-11-22 23:53:00,61.2,60.0,29.99,WNW,286,0.0,0.0,96,0.00,,,0.02,LWC V2.00 B2112,2013-11-23 04:53:00,
2013-11-22 23:58:00,61.0,59.8,29.99,SW,232,0.0,0.0,96,0.00,,,0.03,LWC V2.00 B2112,2013-11-23 04:58:00,